Time,TemperatureF,DewpointF,PressureIn,WindDirection,WindDirectionDegrees,WindSpeedMPH,WindSpeedGustMPH,Humidity,HourlyPrecipIn,Conditions,Clouds,dailyrainin,SoftwareType,DateUTC
2013-03-27 00:02:00,30.0,21.0,-100.00,West,280,2.0,3.0,69,0.00,,,-99.99,,2013-03-27 05:02:00,
2013-03-27 00:12:00,30.0,21.0,-100.00,West,280,2.0,3.0,69,0.00,,,-99.99,,2013-03-27 05:12:00,
2013-03-27 00:23:00,30.0,21.0,-100.00,West,280,2.0,3.0,69,0.00,,,-99.99,,2013-03-27 05:23:00,
2013-03-27 00:32:00,30.0,21.0,-100.00,West,280,2.0,3.0,69,0.00,,,-99.99,,2013-03-27 05:32:00,
2013-03-27 01:02:00,30.0,22.0,-100.00,NNW,330,1.0,4.0,71,0.00,,,-99.99,,2013-03-27 06:02:00,
2013-03-27 01:12:00,30.0,22.0,-100.00,NNW,330,1.0,4.0,71,0.00,,,-99.99,,2013-03-27 06:12:00,
2013-03-27 01:22:00,30.0,22.0,-100.00,NNW,330,1.0,4.0,71,0.00,,,-99.99,,2013-03-27 06:22:00,
2013-03-27 01:32:00,30.0,22.0,-100.00,NNW,330,1.0,4.0,71,0.00,,,-99.99,,2013-03-27 06:32:00,
2013-03-27 01:53:00,29.0,20.0,-100.00,West,280,1.0,2.0,69,0.00,,,-99.99,,2013-03-27 06:53:00,
2013-03-27 02:02:00,29.0,20.0,-100.00,West,280,1.0,2.0,69,0.00,,,-99.99,,2013-03-27 07:02:00,
2013-03-27 02:12:00,29.0,20.0,-100.00,West,280,1.0,2.0,69,0.00,,,-99.99,,2013-03-27 07:12:00,
2013-03-27 02:22:00,29.0,20.0,-100.00,West,280,1.0,2.0,69,0.00,,,-99.99,,2013-03-27 07:22:00,
2013-03-27 02:53:00,29.0,19.0,-100.00,West,280,1.0,2.0,67,0.00,,,-99.99,,2013-03-27 07:53:00,
2013-03-27 03:02:00,29.0,19.0,-100.00,West,280,1.0,2.0,67,0.00,,,-99.99,,2013-03-27 08:02:00,
2013-03-27 03:12:00,29.0,19.0,-100.00,West,280,1.0,2.0,67,0.00,,,-99.99,,2013-03-27 08:12:00,
2013-03-27 03:22:00,29.0,19.0,-100.00,West,280,1.0,2.0,67,0.00,,,-99.99,,2013-03-27 08:22:00,
2013-03-27 03:32:00,29.0,19.0,-100.00,West,280,1.0,2.0,67,0.00,,,-99.99,,2013-03-27 08:32:00,
2013-03-27 03:52:00,29.0,20.0,-100.00,WNW,290,1.0,2.0,70,0.00,,,-99.99,,2013-03-27 08:52:00,
2013-03-27 04:02:00,29.0,20.0,-100.00,WNW,290,1.0,2.0,70,0.00,,,-99.99,,2013-03-27 09:02:00,
2013-03-27 04:12:00,29.0,20.0,-100.00,WNW,290,1.0,2.0,70,0.00,,,-99.99,,2013-03-27 09:12:00,
2013-03-27 04:22:00,29.0,20.0,-100.00,WNW,290,1.0,2.0,70,0.00,,,-99.99,,2013-03-27 09:22:00,
2013-03-27 05:53:00,29.0,18.0,-100.00,West,275,1.0,3.0,66,0.00,,,-99.99,,2013-03-27 10:53:00,
2013-03-27 06:02:00,29.0,18.0,-100.00,West,275,1.0,3.0,66,0.00,,,-99.99,,2013-03-27 11:02:00,
2013-03-27 06:12:00,29.0,18.0,-100.00,West,275,1.0,3.0,66,0.00,,,-99.99,,2013-03-27 11:12:00,
2013-03-27 06:22:00,29.0,18.0,-100.00,West,275,1.0,3.0,66,0.00,,,-99.99,,2013-03-27 11:22:00,
2013-03-27 06:32:00,29.0,18.0,-100.00,West,275,1.0,3.0,66,0.00,,,-99.99,,2013-03-27 11:32:00,
2013-03-27 09:52:00,37.0,13.0,-100.00,West,270,3.0,6.0,36,0.00,,,-99.99,,2013-03-27 14:52:00,
2013-03-27 10:02:00,37.0,13.0,-100.00,West,270,3.0,6.0,36,0.00,,,-99.99,,2013-03-27 15:02:00,
2013-03-27 10:12:00,37.0,13.0,-100.00,West,270,3.0,6.0,36,0.00,,,-99.99,,2013-03-27 15:12:00,
2013-03-27 10:22:00,37.0,13.0,-100.00,West,270,3.0,6.0,36,0.00,,,-99.99,,2013-03-27 15:22:00,
2013-03-27 11:52:00,41.0,2.0,-100.00,West,275,5.0,10.0,19,0.00,,,-99.99,,2013-03-27 16:52:00,
2013-03-27 12:03:00,41.0,2.0,-100.00,West,275,5.0,10.0,19,0.00,,,-99.99,,2013-03-27 17:03:00,
2013-03-27 12:12:00,41.0,2.0,-100.00,West,275,5.0,10.0,19,0.00,,,-99.99,,2013-03-27 17:12:00,
2013-03-27 12:22:00,41.0,2.0,-100.00,West,275,5.0,10.0,19,0.00,,,-99.99,,2013-03-27 17:22:00,
2013-03-27 12:52:00,44.0,3.0,-100.00,NNW,330,2.0,9.0,18,0.00,,,-99.99,,2013-03-27 17:52:00,
2013-03-27 13:02:00,44.0,3.0,-100.00,NNW,330,2.0,9.0,18,0.00,,,-99.99,,2013-03-27 18:02:00,
2013-03-27 13:12:00,44.0,3.0,-100.00,NNW,330,2.0,9.0,18,0.00,,,-99.99,,2013-03-27 18:12:00,
2013-03-27 13:22:00,44.0,3.0,-100.00,NNW,330,2.0,9.0,18,0.00,,,-99.99,,2013-03-27 18:22:00,
2013-03-27 13:53:00,44.0,2.0,-100.00,North,0,4.0,12.0,17,0.00,,,-99.99,,2013-03-27 18:53:00,
2013-03-27 14:02:00,44.0,2.0,-100.00,North,0,4.0,12.0,17,0.00,,,-99.99,,2013-03-27 19:02:00,
2013-03-27 14:12:00,44.0,2.0,-100.00,North,0,4.0,12.0,17,0.00,,,-99.99,,2013-03-27 19:12:00,
2013-03-27 14:22:00,44.0,2.0,-100.00,North,0,4.0,12.0,17,0.00,,,-99.99,,2013-03-27 19:22:00,
2013-03-27 14:52:00,42.0,0.0,-100.00,West,280,4.0,12.0,17,0.00,,,-99.99,,2013-03-27 19:52:00,
2013-03-27 15:02:00,42.0,0.0,-100.00,West,280,4.0,12.0,17,0.00,,,-99.99,,2013-03-27 20:02:00,
2013-03-27 15:12:00,42.0,0.0,-100.00,West,280,4.0,12.0,17,0.00,,,-99.99,,2013-03-27 20:12:00,
2013-03-27 15:22:00,42.0,0.0,-100.00,West,280,4.0,12.0,17,0.00,,,-99.99,,2013-03-27 20:22:00,